Location: Unspecified
(38.9820°N, 0.0000°E)
Time: 14:30:34
(UTC+00:00)

Tiangong 2 - Pass Details

Date: 25 May 2019
Orbit: 376 x 388 km, 42.8° (Epoch: 25 June)

Event Time Altitude Azimuth Distance (km) Brightness Sun altitude
Rises 22:21:39 0° 290° (WNW) 2,235 5.6 -26.0°
Reaches altitude 10° 22:23:43 10° 290° (WNW) 1,382 4.4 -26.1°
Enters shadow 22:24:06 13° 290° (WNW) 1,227 4.1 -26.2°
